KE9LZ-9 Weather Reports


time (UTC)temp
F
wind
direction
speed
knots
gust
knots
rain 1hr
in
rain 24hr
in
rain mn
in
humidity
%
barometer
mb
20220124162504 14 43 0.9 1.7 0.00 0.00 0.00 68 1003.9
20220124162003 14 68 0.0 2.6 0.00 0.00 0.00 68 1004.0
20220124161503 13 24 0.9 2.6 0.00 0.00 0.00 68 1003.9
20220124161004 12 111 0.9 5.2 0.00 0.00 0.00 69 1004.0
20220124160003 11 327 0.9 4.3 0.00 0.00 0.00 72 1003.8
20220124155504 10 37 0.9 2.6 0.00 0.00 0.00 71 1003.8
20220124155003 10 310 0.9 2.6 0.00 0.00 0.00 71 1004.0
20220124154504 11 32 0.9 6.1 0.00 0.00 0.00 70 1004.0
20220124154004 11 324 1.7 2.6 0.00 0.00 0.00 72 1003.8
20220124153504 10 313 0.9 1.7 0.00 0.00 0.00 73 1003.9
20220124153003 10 318 1.7 4.3 0.00 0.00 0.00 73 1003.8
20220124152503 9 343 1.7 4.3 0.00 0.00 0.00 75 1003.9
20220124152003 8 295 0.0 1.7 0.00 0.00 0.00 77 1004.0
20220124151504 7 345 0.0 2.6 0.00 0.00 0.00 77 1003.9
20220124151003 6 331 0.9 4.3 0.00 0.00 0.00 77 1003.7
20220124150004 6 348 0.9 4.3 0.00 0.00 0.00 78 1003.7
20220124145503 6 328 0.9 1.7 0.00 0.00 0.00 79 1004.0
20220124145004 6 4 0.9 2.6 0.00 0.00 0.00 80 1003.8
20220124144504 6 275 0.9 6.1 0.00 0.00 0.00 80 1003.8
20220124144004 5 308 0.0 0.0 0.00 0.00 0.00 80 1003.9
20220124143504 5 307 0.9 1.7 0.00 0.00 0.00 80 1003.6
20220124143003 5 296 0.0 2.6 0.00 0.00 0.00 80 1003.3
20220124142503 5 276 0.0 0.9 0.00 0.00 0.00 80 1003.5
20220124142004 5 251 0.0 0.9 0.00 0.00 0.00 80 1003.6
20220124141504 4 235 0.0 0.0 0.00 0.00 0.00 80 1003.5
20220124141003 4 235 0.0 0.9 0.00 0.00 0.00 80 1003.8
20220124140004 5 232 0.0 0.0 0.00 0.00 0.00 80 1003.6
20220124135505 5 232 0.0 0.0 0.00 0.00 0.00 80 1003.5
20220124135003 5 232 0.0 0.0 0.00 0.00 0.00 80 1003.4
20220124134503 5 231 0.0 0.0 0.00 0.00 0.00 80 1003.4
20220124134004 5 231 0.0 0.0 0.00 0.00 0.00 80 1003.6
20220124133504 5 231 0.0 0.0 0.00 0.00 0.00 81 1003.8
20220124133003 5 231 0.0 0.0 0.00 0.00 0.00 81 1003.5
20220124132503 5 231 0.0 0.0 0.00 0.00 0.00 81 1003.6
20220124132003 5 231 0.0 0.0 0.00 0.00 0.00 81 1003.6
20220124131504 5 231 0.0 0.0 0.00 0.00 0.00 80 1003.6
20220124131004 5 231 0.0 0.0 0.00 0.00 0.00 81 1003.9
20220124130004 5 231 0.0 0.0 0.00 0.00 0.00 81 1003.7
20220124125504 5 231 0.0 0.0 0.00 0.00 0.00 80 1003.6
20220124125004 5 231 0.0 0.0 0.00 0.00 0.00 81 1003.7
20220124124504 5 231 0.0 0.0 0.00 0.00 0.00 80 1003.5
20220124124004 5 231 0.0 0.0 0.00 0.00 0.00 80 1003.7
20220124123504 5 231 0.0 0.0 0.00 0.00 0.00 80 1003.6
20220124123004 5 231 0.0 0.0 0.00 0.00 0.00 80 1003.9
20220124122503 5 231 0.0 0.0 0.00 0.00 0.00 80 1003.9
20220124122004 5 231 0.0 0.0 0.00 0.00 0.00 80 1003.6
20220124121503 5 231 0.0 0.0 0.00 0.00 0.00 80 1003.5
20220124121004 5 231 0.0 0.0 0.00 0.00 0.00 80 1003.5
20220124120004 5 231 0.0 0.0 0.00 0.00 0.00 81 1003.6
20220124115503 5 231 0.0 0.0 0.00 0.00 0.00 80 1003.6
20220124115004 5 231 0.0 0.0 0.00 0.00 0.00 80 1003.6
20220124114504 5 231 0.0 0.0 0.00 0.00 0.00 80 1003.6
20220124114003 5 231 0.0 0.0 0.00 0.00 0.00 80 1003.6
20220124113504 5 231 0.0 0.0 0.00 0.00 0.00 80 1003.6
20220124113003 5 231 0.0 0.0 0.00 0.00 0.00 81 1003.6
20220124112504 5 231 0.0 0.0 0.00 0.00 0.00 79 1003.6
20220124112003 5 231 0.0 0.0 0.00 0.00 0.00 79 1003.7
20220124111503 5 231 0.0 0.0 0.00 0.00 0.00 79 1003.7
20220124111003 5 231 0.0 0.0 0.00 0.00 0.00 79 1003.6
20220124110004 5 230 0.0 0.0 0.00 0.00 0.00 79 1003.7
20220124105504 5 230 0.0 0.0 0.00 0.00 0.00 79 1003.5
20220124105003 5 230 0.0 0.0 0.00 0.00 0.00 79 1003.7
20220124104503 5 231 0.0 0.0 0.00 0.00 0.00 79 1003.6
20220124104004 5 231 0.0 0.0 0.00 0.00 0.00 80 1003.8
20220124103504 5 230 0.0 0.0 0.00 0.00 0.00 78 1003.8
20220124103004 5 230 0.0 0.0 0.00 0.00 0.00 78 1003.8
20220124102504 5 230 0.0 0.0 0.00 0.00 0.00 79 1003.8
20220124102004 5 230 0.0 0.0 0.00 0.00 0.00 79 1003.7
20220124101504 5 230 0.0 0.0 0.00 0.00 0.00 79 1003.7
20220124101004 5 228 0.0 0.9 0.00 0.00 0.00 78 1003.8
20220124100004 5 235 0.0 0.9 0.00 0.00 0.00 78 1003.8
20220124095503 5 231 0.0 0.9 0.00 0.00 0.00 77 1003.5
20220124095004 5 217 0.0 0.0 0.00 0.00 0.00 76 1003.9
20220124094503 5 217 0.0 0.0 0.00 0.00 0.00 76 1003.8
20220124094003 5 217 0.0 0.0 0.00 0.00 0.00 76 1004.1
20220124093503 5 217 0.0 0.0 0.00 0.00 0.00 77 1003.9
20220124093004 5 217 0.0 0.0 0.00 0.00 0.00 76 1004.0
20220124092503 5 217 0.0 0.0 0.00 0.00 0.00 76 1004.0
20220124092005 5 217 0.0 0.9 0.00 0.00 0.00 77 1003.9
20220124091504 5 217 0.0 1.7 0.00 0.00 0.00 76 1003.8
20220124091003 5 155 0.0 0.9 0.00 0.00 0.00 76 1003.9
20220124090003 5 160 0.0 0.0 0.00 0.00 0.00 76 1004.3
20220124085504 5 160 0.0 0.0 0.00 0.00 0.00 76 1004.2
20220124085004 5 160 0.0 0.0 0.00 0.00 0.00 76 1004.4
20220124084503 5 160 0.0 0.0 0.00 0.00 0.00 76 1004.5
20220124084004 5 159 0.0 0.0 0.00 0.00 0.00 75 1004.7
20220124083504 5 156 0.0 0.9 0.00 0.00 0.00 75 1004.5
20220124083003 5 163 0.9 0.9 0.00 0.00 0.00 75 1004.6
20220124082504 5 244 0.0 0.0 0.00 0.00 0.00 75 1004.6
20220124082003 5 244 0.0 0.9 0.00 0.00 0.00 75 1004.8
20220124081503 5 249 0.0 0.0 0.00 0.00 0.00 75 1005.0
20220124081003 5 249 0.0 0.0 0.00 0.00 0.00 75 1005.3
20220124080004 5 249 0.0 0.0 0.00 0.00 0.00 75 1005.3
20220124075503 5 249 0.0 0.0 0.00 0.00 0.00 75 1005.4
20220124075004 5 249 0.0 0.0 0.00 0.00 0.00 75 1005.3
20220124074504 5 249 0.0 0.0 0.00 0.00 0.00 75 1005.3
20220124074004 5 249 0.0 0.0 0.00 0.00 0.00 75 1005.5
20220124073503 5 249 0.0 0.0 0.00 0.00 0.00 75 1005.3
20220124073004 5 249 0.0 0.9 0.00 0.00 0.00 75 1005.2
20220124072504 5 248 0.0 0.0 0.00 0.00 0.00 76 1005.4
20220124072004 5 246 0.0 0.9 0.00 0.00 0.00 75 1005.5
20220124071503 5 252 0.0 1.7 0.00 0.00 0.00 75 1005.5
20220124071004 5 212 0.0 2.6 0.00 0.00 0.00 75 1005.7
20220124070003 5 272 0.9 2.6 0.00 0.00 0.00 75 1006.0
20220124065504 5 250 0.9 2.6 0.00 0.00 0.00 74 1006.2
20220124065004 5 271 0.9 4.3 0.00 0.00 0.00 73 1006.4
20220124064503 6 224 0.9 1.7 0.00 0.00 0.00 71 1006.2
20220124064003 6 246 1.7 4.3 0.00 0.00 0.00 69 1006.2
20220124063504 6 279 1.7 4.3 0.00 0.00 0.00 69 1006.5
20220124063004 6 238 0.9 4.3 0.00 0.00 0.00 67 1006.4
20220124062503 6 253 2.6 5.2 0.00 0.00 0.00 66 1006.4
20220124062004 6 258 2.6 7.8 0.00 0.00 0.00 64 1006.6
20220124061504 6 255 1.7 6.1 0.00 0.00 0.00 62 1006.8
20220124061006 6 273 1.7 6.1 0.00 0.00 0.00 61 1006.9
20220124060003 6 287 0.9 4.3 0.00 0.00 0.00 61 1007.1
20220124055504 6 267 0.9 6.1 0.00 0.00 0.00 60 1007.2
20220124055003 6 242 1.7 4.3 0.00 0.00 0.00 61 1006.9
20220124054504 6 255 0.9 2.6 0.00 0.00 0.00 62 1006.9
20220124054003 6 256 1.7 4.3 0.00 0.00 0.00 62 1006.9
20220124053503 6 247 1.7 2.6 0.00 0.00 0.00 62 1007.1
20220124053004 6 249 0.9 2.6 0.00 0.00 0.00 64 1007.4
20220124052504 6 256 0.0 2.6 0.00 0.00 0.00 63 1007.4
20220124052003 6 252 1.7 4.3 0.00 0.00 0.00 62 1007.3
20220124051503 6 248 0.9 2.6 0.00 0.00 0.00 63 1007.6
20220124051003 6 273 0.0 2.6 0.00 0.00 0.00 63 1007.6
20220124050004 6 297 1.7 4.3 0.00 0.00 0.00 64 1007.7
20220124045503 6 272 1.7 4.3 0.00 0.00 0.00 64 1007.6
20220124045004 6 241 0.9 4.3 0.00 0.00 0.00 64 1007.9
20220124044504 6 261 1.7 5.2 0.00 0.00 0.00 64 1007.5
20220124044003 7 250 0.9 4.3 0.00 0.00 0.00 64 1007.8
20220124043503 6 246 1.7 2.6 0.00 0.00 0.00 64 1007.8
20220124043004 6 260 1.7 4.3 0.00 0.00 0.00 63 1007.8
20220124042503 7 240 1.7 5.2 0.00 0.00 0.00 64 1007.9
20220124042004 7 260 0.9 1.7 0.00 0.00 0.00 64 1007.7
20220124041503 7 254 0.9 1.7 0.00 0.00 0.00 64 1007.7
20220124041004 7 255 0.0 2.6 0.00 0.00 0.00 64 1007.9
20220124040004 7 248 0.9 2.6 0.00 0.00 0.00 64 1007.6
20220124035503 7 238 1.7 2.6 0.00 0.00 0.00 64 1007.9
20220124035003 7 234 0.9 1.7 0.00 0.00 0.00 64 1007.7
20220124034505 7 247 0.9 4.3 0.00 0.00 0.00 64 1007.9
20220124034004 7 248 2.6 4.3 0.00 0.00 0.00 63 1007.8
20220124033504 7 250 1.7 5.2 0.00 0.00 0.00 63 1008.1
20220124033004 7 240 0.9 2.6 0.00 0.00 0.00 63 1008.0
20220124032504 7 272 1.7 4.3 0.00 0.00 0.00 63 1007.9
20220124032003 7 266 0.9 4.3 0.00 0.00 0.00 63 1007.9
20220124031504 7 262 1.7 6.1 0.00 0.00 0.00 64 1007.9
20220124031003 7 236 1.7 5.2 0.00 0.00 0.00 63 1008.2
20220124030004 7 256 2.6 5.2 0.00 0.00 0.00 63 1008.1
20220124025504 7 247 1.7 4.3 0.00 0.00 0.00 63 1008.2
20220124025003 7 295 1.7 4.3 0.00 0.00 0.00 63 1008.3
20220124024503 7 246 1.7 5.2 0.00 0.00 0.00 63 1008.4
20220124024003 7 254 2.6 6.1 0.00 0.00 0.00 63 1008.5
20220124023503 7 274 1.7 5.2 0.00 0.00 0.00 63 1008.3
20220124023004 7 247 0.9 6.1 0.00 0.00 0.00 62 1008.5
20220124022503 7 268 2.6 11.3 0.00 0.00 0.00 62 1008.7
20220124022004 7 277 3.5 11.3 0.00 0.00 0.00 62 1008.8
20220124021504 7 281 1.7 2.6 0.00 0.00 0.00 63 1008.9
20220124021004 7 288 1.7 5.2 0.00 0.00 0.00 62 1008.8
20220124020004 7 262 2.6 5.2 0.00 0.00 0.00 61 1008.8
20220124015504 7 254 1.7 6.1 0.00 0.00 0.00 62 1008.8
20220124015004 7 249 1.7 6.1 0.00 0.00 0.00 63 1009.0
20220124014503 7 258 2.6 6.1 0.00 0.00 0.00 62 1009.1
20220124014003 7 277 1.7 4.3 0.00 0.00 0.00 62 1009.2
20220124013504 7 272 2.6 6.1 0.00 0.00 0.00 63 1009.1
20220124013004 7 259 1.7 5.2 0.00 0.00 0.00 64 1009.5
20220124012504 6 273 1.7 4.3 0.00 0.00 0.00 64 1009.4
20220124012005 6 260 1.7 4.3 0.00 0.00 0.00 65 1009.4
20220124011504 6 260 1.7 5.2 0.00 0.00 0.00 66 1009.6
20220124011003 5 261 1.7 5.2 0.00 0.00 0.00 66 1009.5
20220124010003 4 253 1.7 2.6 0.00 0.00 0.00 66 1009.8
20220124005504 4 250 0.9 1.7 0.00 0.00 0.00 66 1009.8
20220124005004 4 255 0.9 1.7 0.00 0.00 0.00 66 1009.8
20220124004503 3 252 0.9 1.7 0.00 0.00 0.00 65 1009.8
20220124004004 3 243 0.9 1.7 0.00 0.00 0.00 64 1010.0
20220124003503 4 246 1.7 4.3 0.00 0.00 0.00 64 1010.1
20220124003004 4 285 0.9 2.6 0.00 0.00 0.00 64 1010.3
20220124002504 4 255 0.9 2.6 0.00 0.00 0.00 64 1009.9
20220124002003 4 269 0.9 2.6 0.00 0.00 0.00 63 1010.1
20220124001503 4 259 0.9 4.3 0.00 0.00 0.00 63 1010.1
20220124001004 4 266 0.9 5.2 0.00 0.00 0.00 63 1010.3
20220124000004 5 252 0.9 1.7 0.00 0.00 0.00 61 1010.3
20220123235503 5 243 0.0 0.9 0.00 0.00 0.00 61 1010.2
20220123235003 5 240 0.0 0.9 0.00 0.00 0.00 62 1010.6
20220123234503 5 253 0.0 0.9 0.00 0.00 0.00 60 1010.4
20220123234004 6 260 0.0 2.6 0.00 0.00 0.00 59 1010.3
20220123233504 6 240 0.0 0.9 0.00 0.00 0.00 59 1010.5
20220123233004 7 261 0.0 0.0 0.00 0.00 0.00 58 1010.5
20220123232504 8 261 0.0 0.9 0.00 0.00 0.00 57 1010.7
20220123232004 8 278 0.0 0.0 0.00 0.00 0.00 55 1010.9
20220123231504 9 278 0.0 0.0 0.00 0.00 0.00 55 1010.7
20220123231003 9 278 0.0 1.7 0.00 0.00 0.00 54 1011.0
20220123230003 10 278 0.0 1.7 0.00 0.00 0.00 53 1010.8
20220123225503 11 255 0.0 0.9 0.00 0.00 0.00 52 1010.6
20220123225004 12 246 0.9 1.7 0.00 0.00 0.00 52 1010.9
20220123224504 12 246 0.9 2.6 0.00 0.00 0.00 51 1010.8
20220123224004 13 258 0.9 2.6 0.00 0.00 0.00 50 1011.0
20220123223504 13 242 1.7 4.3 0.00 0.00 0.00 50 1011.0
20220123223004 14 257 1.7 7.8 0.00 0.00 0.00 49 1011.0
20220123222504 14 267 1.7 8.7 0.00 0.00 0.00 49 1010.9
20220123222004 14 246 2.6 8.7 0.00 0.00 0.00 48 1010.8
20220123221504 15 268 2.6 6.1 0.00 0.00 0.00 47 1011.1
20220123221004 15 297 2.6 5.2 0.00 0.00 0.00 46 1011.0
20220123220004 15 252 2.6 6.1 0.00 0.00 0.00 44 1010.8
20220123215503 15 269 1.7 6.1 0.00 0.00 0.00 45 1010.8
20220123215004 16 243 0.9 2.6 0.00 0.00 0.00 44 1011.0
20220123214503 16 260 1.7 4.3 0.00 0.00 0.00 45 1010.9
20220123214004 17 248 2.6 6.1 0.00 0.00 0.00 43 1010.9
20220123213503 17 236 1.7 5.2 0.00 0.00 0.00 45 1011.1
20220123213004 17 231 1.7 5.2 0.00 0.00 0.00 45 1010.9
20220123212503 17 230 2.6 7.8 0.00 0.00 0.00 44 1011.0
20220123212004 17 291 2.6 7.0 0.00 0.00 0.00 42 1010.9
20220123211503 17 252 1.7 5.2 0.00 0.00 0.00 43 1011.0
20220123211004 17 276 2.6 7.8 0.00 0.00 0.00 43 1011.0
20220123210004 17 282 2.6 5.2 0.00 0.00 0.00 43 1011.2
20220123205504 17 299 2.6 7.8 0.00 0.00 0.00 44 1011.1
20220123205005 17 291 2.6 7.8 0.00 0.00 0.00 45 1011.2
20220123204503 16 281 0.9 4.3 0.00 0.00 0.00 45 1011.2
20220123204004 16 286 0.9 5.2 0.00 0.00 0.00 45 1011.3
20220123203503 17 286 2.6 7.0 0.00 0.00 0.00 45 1011.3
20220123203004 16 307 2.6 10.4 0.00 0.00 0.00 46 1011.3
20220123202504 16 264 0.9 7.8 0.00 0.00 0.00 49 1011.4
20220123202003 16 303 3.5 7.0 0.00 0.00 0.00 48 1011.3
20220123201503 16 201 1.7 7.8 0.00 0.00 0.00 48 1011.6
20220123201004 16 269 3.5 7.0 0.00 0.00 0.00 48 1011.4
20220123200003 15 290 1.7 6.1 0.00 0.00 0.00 49 1011.5
20220123195503 15 292 3.5 7.0 0.00 0.00 0.00 50 1011.4
20220123195004 15 250 1.7 6.1 0.00 0.00 0.00 51 1011.3
20220123194504 15 323 0.9 5.2 0.00 0.00 0.00 50 1011.6
20220123194004 15 275 2.6 6.1 0.00 0.00 0.00 50 1011.7
20220123193503 15 333 0.9 1.7 0.00 0.00 0.00 51 1011.9
20220123193004 15 280 1.7 5.2 0.00 0.00 0.00 50 1011.7
20220123192504 15 267 0.0 1.7 0.00 0.00 0.00 51 1011.8
20220123192003 15 288 2.6 4.3 0.00 0.00 0.00 50 1011.8
20220123191503 15 342 1.7 6.1 0.00 0.00 0.00 51 1012.1
20220123191004 15 314 0.9 4.3 0.00 0.00 0.00 52 1012.4
20220123190003 15 237 1.7 4.3 0.00 0.00 0.00 51 1012.2
20220123185504 15 208 0.9 5.2 0.00 0.00 0.00 51 1012.2
20220123185004 16 278 2.6 2.6 0.00 0.00 0.00 51 1012.3
20220123184503 16 169 0.0 2.6 0.00 0.00 0.00 52 1012.5
20220123184004 15 237 1.7 5.2 0.00 0.00 0.00 50 1012.6
20220123183503 15 275 2.6 7.0 0.00 0.00 0.00 50 1012.7
20220123183004 15 1 1.7 5.2 0.00 0.00 0.00 52 1012.7
20220123182504 15 272 0.9 1.7 0.00 0.00 0.00 52 1012.8
20220123182003 15 106 0.0 2.6 0.00 0.00 0.00 55 1012.9
20220123181504 14 262 1.7 2.6 0.00 0.00 0.00 54 1013.2
20220123181003 14 340 1.7 5.2 0.00 0.00 0.00 55 1013.0
20220123180004 14 275 1.7 6.1 0.00 0.00 0.00 56 1013.3
20220123175503 13 305 2.6 6.1 0.00 0.00 0.00 55 1013.6
20220123175003 13 27 0.9 2.6 0.00 0.00 0.00 56 1013.7
20220123174504 13 287 2.6 7.0 0.00 0.00 0.00 56 1013.8
20220123174004 13 262 1.7 6.1 0.00 0.00 0.00 55 1013.8
20220123173503 13 322 0.9 4.3 0.00 0.00 0.00 56 1014.0
20220123173004 13 297 1.7 4.3 0.00 0.00 0.00 57 1014.1
20220123172503 13 30 0.9 2.6 0.00 0.00 0.00 57 1014.4
20220123172004 13 44 1.7 5.2 0.00 0.00 0.00 57 1014.2
20220123171504 13 254 2.6 5.2 0.00 0.00 0.00 57 1014.4
20220123171003 12 42 0.9 8.7 0.00 0.00 0.00 58 1014.3
20220123170004 12 302 0.9 6.1 0.00 0.00 0.00 59 1014.4
20220123165503 12 304 0.9 6.1 0.00 0.00 0.00 58 1014.6
20220123165004 12 298 0.9 2.6 0.00 0.00 0.00 60 1014.4
20220123164503 12 2 0.0 4.3 0.00 0.00 0.00 60 1014.6
20220123164004 12 290 0.9 5.2 0.00 0.00 0.00 60 1014.7
20220123163503 12 291 1.7 4.3 0.00 0.00 0.00 60 1014.9
20220123163004 12 356 0.9 5.2 0.00 0.00 0.00 62 1014.7